Weather in Troitske

Ukraine / Luhansk Region     48°31′26″N   38°22′15″E
temp.,
°C
wind,
m/s
gust,
m/s
humid.,
%
clouds,
%
prec.,
mm/h
press.,
hPa
HPBL,
m
16 april, fri
fri1600:00+8ssw36801 0.0 1016145
03:00+6s36862 0.0 1016155
06:00+5s36908 0.0 1017142
09:00+10s67654 0.0 1018891
12:00+13ssw68489 0.0 10171764
15:00+15sw573818 0.0 10172199
18:00+13ssw574931 0.0 1017894
21:00+9s486991 0.0 1018220
17 april, sat
sat1700:00+8ssw368015 0.0 1018141
03:00+6sw348441 0.0 101995
06:00+5wsw25958 0.0 1019149
09:00+9w45585 0.0 1020890
12:00+11wsw675297 0.0 10201660
15:00+12w684987 0.0 10211724
18:00+10wsw4758100 0.0 10211107
21:00+9sw2462100 0.0 1022157
18 april, sun
sun1800:00+10s2356100 0.0 102171
03:00+8sw2261100 0.0 102145
06:00+7sse226991 0.0 102125
09:00+12sse555352 0.0 1020976
12:00+14se444294 0.0 10191749
15:00+16se443665 0.0 10182245
18:00+15se454274 0.0 10181674
21:00+11se3455100 0.0 101870
19 april, mon
mon1900:00+11sse2265100 0.0 101864
03:00+11ese3572100 0.0 1017278
06:00+10e5886100 0.3 1016470
09:00+9e4791100 2.2 1016435
12:00+10e4795100 1.9 1014440
15:00+11ese3693100 2.3 1012539
18:00+12e2594100 0.0 1011307
21:00+12ese3797100 1.7 1009239
20 april, tue
tue2000:00+13se61395100 3.4 1006573
03:00+13se61394100 5.8 1003444
06:00+13se91883100 3.6 999793
09:00+13sse91586100 3.7 999744
12:00+16s10156799 0.6 10001307
15:00+16s1320580 0.6 10001566
18:00+11s12177391 0.1 10011293
21:00+10s111781100 0.3 10031645